San Angelo, TX

9:07 AM CDT on May 24, 2017 (GMT -0500)
San Angelo Regional-Mathis

Weather History for KSJT - July, 2013

Change the Weather History Date:

Monday, July 15, 2013

  Actual Average Record
Temperature  
Mean Temperature 68 °F 83 °F  
Max Temperature 71 °F 95 °F 111 °F (1933)
Min Temperature 65 °F 71 °F 54 °F (1926)
Degree Days  
Heating Degree Days 0 0  
Month to date heating degree days 0 0  
Since 1 June heating degree days 0 0  
Since 1 July heating degree days 0 0  
Cooling Degree Days 3 18  
Month to date cooling degree days 265 266  
Year to date cooling degree days 1422 1190  
Since 1 June cooling degree days 826 730  
Growing Degree Days 18 (Base 50)    
Moisture  
Dew Point 65 °F    
Average Humidity 89    
Maximum Humidity 100    
Minimum Humidity 78    
Precipitation  
Precipitation 1.23 in 0.03 in 2.31 in (1990)
Month to date precipitation 1.24 0.64  
Year to date precipitation 9.02 11.25  
Sea Level Pressure  
Sea Level Pressure 30.00 in    
Wind  
Wind Speed 12 mph (NNE)    
Max Wind Speed 21 mph    
Max Gust Speed 30 mph    
Visibility 6 miles    
Events Rain    
T = Trace of Precipitation, MM = Missing Value Source: NWS Daily Summary

Daily Weather History Graph

Daily Weather History Graph

Search for Another Location

Airport or City:

Trip Planner

Search our weather history database for the weather conditions in past years. The results will help you decide how hot, cold, wet, or windy it might be!

Date:

Astronomy

Jul. 15, 2013 Rise Set
Actual Time 6:48 AM CDT 8:47 PM CDT
Civil Twilight 6:20 AM CDT 9:14 PM CDT
Nautical Twilight 5:47 AM CDT 9:47 PM CDT
Astronomical Twilight 5:12 AM CDT 10:23 PM CDT
Moon 1:38 PM CDT (7/15) 12:30 AM CDT (7/15)
Length of Visible Light 14h 53m
Length of Day
13h 59m
Waxing Crescent, 45% of the Moon is Illuminated
Jul 15
Waxing Crescent
Jul 15
First Quarter
Jul 22
Full
Jul 29
Last Quarter
Aug 6
New

Hourly Weather History & Observations

Time (CDT) Temp. Dew Point Humidity Pressure Visibility Wind Dir Wind Speed Gust Speed Precip Events Conditions
12:20 AM 71.6 °F 64.4 °F 78% 29.94 in 10.0 mi East 19.6 mph 28.8 mph 0.01 in   Mostly Cloudy
12:51 AM 71.1 °F 64.0 °F 78% 29.88 in 10.0 mi ENE 18.4 mph 23.0 mph 0.01 in   Overcast
1:39 AM 71.6 °F 64.4 °F 78% 29.96 in 10.0 mi ENE 17.3 mph 25.3 mph N/A   Overcast
1:51 AM 71.1 °F 64.0 °F 78% 29.88 in 10.0 mi NE 19.6 mph - N/A   Overcast
2:51 AM 70.0 °F 64.0 °F 81% 29.89 in 10.0 mi ENE 17.3 mph 27.6 mph 0.01 in   Overcast
3:24 AM 69.8 °F 64.4 °F 83% 29.97 in 10.0 mi ENE 20.7 mph 27.6 mph N/A   Overcast
3:34 AM 69.8 °F 62.6 °F 78% 29.97 in 10.0 mi East 19.6 mph 28.8 mph N/A   Overcast
3:51 AM 69.1 °F 63.0 °F 81% 29.89 in 10.0 mi East 20.7 mph 28.8 mph N/A   Overcast
4:40 AM 69.8 °F 64.4 °F 83% 29.98 in 10.0 mi ENE 17.3 mph 25.3 mph 0.01 in   Overcast
4:51 AM 69.1 °F 64.0 °F 84% 29.90 in 10.0 mi ENE 18.4 mph - 0.01 in   Overcast
5:02 AM 69.8 °F 64.4 °F 83% 29.98 in 10.0 mi ENE 23.0 mph 28.8 mph N/A   Overcast
5:51 AM 66.0 °F 63.0 °F 90% 29.93 in 10.0 mi NNE 12.7 mph 21.9 mph 0.00 in Rain Light Rain
6:24 AM 64.4 °F 64.4 °F 100% 30.00 in 1.8 mi NNE 11.5 mph - 0.21 in Rain Heavy Rain
6:30 AM 64.4 °F 62.6 °F 94% 30.00 in 2.0 mi NE 13.8 mph - 0.31 in Rain Heavy Rain
6:43 AM 64.4 °F 62.6 °F 94% 29.99 in 3.0 mi NE 12.7 mph - 0.40 in Rain Rain
6:51 AM 64.9 °F 63.0 °F 93% 29.92 in 5.0 mi NE 13.8 mph - 0.43 in Rain Rain
6:57 AM 64.4 °F 62.6 °F 94% 29.99 in 6.0 mi NE 13.8 mph - 0.00 in Rain Light Rain
7:40 AM 64.4 °F 62.6 °F 94% 30.00 in 2.0 mi NNE 11.5 mph 20.7 mph 0.13 in Rain Heavy Rain
7:51 AM 64.9 °F 63.0 °F 93% 29.95 in 2.5 mi North 10.4 mph - 0.17 in Rain Rain
8:27 AM 64.4 °F 64.4 °F 100% 30.01 in 3.0 mi NNE 11.5 mph - 0.16 in Rain Rain
8:51 AM 66.0 °F 64.0 °F 93% 29.96 in 9.0 mi NNE 12.7 mph - 0.18 in Rain Light Rain
9:17 AM 66.2 °F 62.6 °F 88% 30.02 in 10.0 mi ENE 12.7 mph - 0.01 in Rain Light Rain
9:42 AM 66.2 °F 64.4 °F 94% 30.03 in 10.0 mi NE 10.4 mph - 0.02 in Rain Light Rain
9:51 AM 66.0 °F 64.0 °F 93% 29.98 in 10.0 mi NE 10.4 mph - 0.02 in Rain Light Rain
10:51 AM 66.9 °F 64.9 °F 93% 29.99 in 7.0 mi NE 8.1 mph - 0.04 in Rain Light Rain
12:01 PM 68.0 °F 64.4 °F 88% 30.05 in 6.0 mi NNE 10.4 mph - 0.00 in Rain Light Rain
12:25 PM 66.2 °F 64.4 °F 94% 30.05 in 2.5 mi NNE 12.7 mph - 0.00 in Rain Light Rain
2:51 PM 69.1 °F 64.9 °F 87% 29.99 in 10.0 mi North 11.5 mph - N/A   Overcast
3:49 PM 69.8 °F 64.4 °F 83% 30.03 in 10.0 mi NNE 10.4 mph - 0.00 in Rain Light Rain
3:51 PM 70.0 °F 64.9 °F 84% 29.99 in 10.0 mi NNE 12.7 mph - 0.00 in Rain Light Rain
4:04 PM 69.8 °F 64.4 °F 83% 30.03 in 10.0 mi NNE 8.1 mph - 0.00 in Rain Light Rain
4:51 PM 69.1 °F 64.9 °F 87% 29.99 in 9.0 mi North 9.2 mph - 0.00 in Rain Light Rain
5:35 PM 69.8 °F 66.2 °F 88% 30.03 in 2.5 mi NNE 8.1 mph - 0.02 in Rain Light Rain
5:43 PM 69.8 °F 66.2 °F 88% 30.02 in 4.0 mi NNE 8.1 mph - 0.03 in Rain Light Rain
5:51 PM 69.1 °F 66.0 °F 90% 29.98 in 9.0 mi NNE 9.2 mph - 0.03 in Rain Light Rain
5:53 PM 69.8 °F 66.2 °F 88% 30.02 in 9.0 mi NNE 8.1 mph - 0.00 in Rain Light Rain
6:51 PM 69.1 °F 66.9 °F 93% 29.98 in 2.5 mi NNE 5.8 mph - 0.04 in Rain Light Rain
6:54 PM 69.8 °F 66.2 °F 88% 30.02 in 3.0 mi NNE 6.9 mph - 0.00 in Rain Light Rain
7:18 PM 68.0 °F 66.2 °F 94% 30.02 in 3.0 mi NNE 8.1 mph - 0.00 in Rain Light Rain
7:24 PM 69.8 °F 66.2 °F 88% 30.03 in 1.8 mi North 5.8 mph - 0.01 in Rain Light Rain
7:36 PM 69.8 °F 66.2 °F 88% 30.03 in 1.8 mi North 4.6 mph - 0.04 in Rain Light Rain
7:43 PM 69.8 °F 66.2 °F 88% 30.03 in 2.5 mi North 6.9 mph - 0.05 in Rain Light Rain
7:51 PM 69.1 °F 66.9 °F 93% 29.99 in 2.0 mi North 8.1 mph - 0.06 in Rain Rain
8:14 PM 68.0 °F 66.2 °F 94% 30.04 in 3.0 mi NNE 6.9 mph - 0.03 in Rain Light Rain
8:22 PM 68.0 °F 66.2 °F 94% 30.04 in 2.0 mi NNE 9.2 mph - 0.04 in Rain Light Rain
8:37 PM 68.0 °F 66.2 °F 94% 30.04 in 2.5 mi NNE 10.4 mph - 0.06 in Rain Rain
8:51 PM 66.9 °F 66.0 °F 97% 30.00 in 3.0 mi NE 10.4 mph - 0.10 in Rain Light Rain
9:07 PM 66.2 °F 64.4 °F 94% 30.05 in 3.0 mi NNE 8.1 mph - 0.02 in Rain Light Rain
9:15 PM 66.2 °F 64.4 °F 94% 30.05 in 5.0 mi NNE 10.4 mph - 0.02 in Rain Light Rain
9:34 PM 66.2 °F 64.4 °F 94% 30.06 in 5.0 mi North 9.2 mph - 0.04 in Rain Light Rain
9:51 PM 66.9 °F 64.9 °F 93% 30.02 in 5.0 mi North 6.9 mph - 0.05 in Rain Light Rain
10:12 PM 66.2 °F 66.2 °F 100% 30.07 in 5.0 mi NNE 6.9 mph - 0.01 in Rain Light Rain
10:51 PM 68.0 °F 66.0 °F 93% 30.04 in 3.0 mi NNE 5.8 mph - 0.06 in Rain Rain
11:38 PM 68.0 °F 66.2 °F 94% 30.08 in 10.0 mi NNW 5.8 mph - 0.02 in   Overcast
11:42 PM 68.0 °F 66.2 °F 94% 30.08 in 10.0 mi NNW 4.6 mph - 0.02 in   Overcast
11:48 PM 68.0 °F 66.2 °F 94% 30.08 in 10.0 mi NNW 5.8 mph - 0.02 in   Overcast
11:51 PM 68.0 °F 66.0 °F 93% 30.04 in 10.0 mi North 4.6 mph - 0.02 in   Overcast